Time[GMT],salinity[psu](1m),sigma_t[kg/m^3](1m),conductivity[msiemens/cm](1m),temperature[C](1m)
2018-03-24 01:00,32.313,25.618,30.555,4.32
2018-03-24 02:00,32.329,25.630,30.564,4.31
2018-03-24 03:00,32.331,25.634,30.550,4.30
2018-03-24 04:00,,,,
2018-03-24 05:00,32.335,25.639,30.541,4.28
2018-03-24 06:00,32.333,25.638,30.534,4.27
2018-03-24 07:00,32.334,25.640,30.525,4.26
2018-03-24 08:00,32.282,25.606,30.418,4.19
2018-03-24 09:00,32.280,25.606,30.400,4.17
2018-03-24 10:00,32.304,25.624,30.431,4.18
2018-03-24 11:00,32.319,25.633,30.470,4.21
2018-03-24 12:00,32.327,25.637,30.498,4.24
2018-03-24 13:00,32.316,25.628,30.489,4.24
2018-03-24 14:00,32.327,25.633,30.531,4.28
2018-03-24 15:00,32.318,25.622,30.555,4.31
2018-03-24 16:00,32.321,25.625,30.554,4.31
2018-03-24 17:00,32.302,25.586,30.733,4.54
2018-03-24 18:00,,,,
2018-03-24 19:00,32.329,25.593,30.868,4.68
2018-03-24 20:00,,,,
2018-03-24 21:00,32.325,25.622,30.606,4.37
2018-03-24 22:00,32.318,25.612,30.631,4.41
2018-03-24 23:00,32.331,25.615,30.710,4.49
2018-03-25 00:00,32.302,25.607,30.556,4.33
2018-03-25 01:00,32.311,25.604,30.656,4.44
2018-03-25 02:00,32.298,25.603,30.562,4.34
2018-03-25 03:00,32.299,25.614,30.479,4.24
2018-03-25 04:00,32.309,25.625,30.466,4.22
2018-03-25 05:00,32.335,25.645,30.493,4.22
2018-03-25 06:00,32.288,25.600,30.513,4.30
2018-03-25 07:00,32.282,25.596,30.504,4.29
2018-03-25 08:00,32.279,25.591,30.521,4.31
2018-03-25 09:00,32.271,25.587,30.499,4.30
2018-03-25 10:00,32.275,25.591,30.493,4.28
2018-03-25 11:00,32.268,25.588,30.460,4.25
2018-03-25 12:00,32.276,25.597,30.453,4.24
2018-03-25 13:00,32.281,25.600,30.456,4.23
2018-03-25 14:00,32.284,25.604,30.447,4.22
2018-03-25 15:00,32.290,25.609,30.452,4.22
2018-03-25 16:00,32.276,25.598,30.442,4.22
2018-03-25 17:00,32.279,25.599,30.457,4.24
2018-03-25 18:00,32.269,25.589,30.466,4.26
2018-03-25 19:00,32.269,25.589,30.462,4.25
2018-03-25 20:00,32.265,25.585,30.471,4.27
2018-03-25 21:00,32.266,25.585,30.477,4.27
2018-03-25 22:00,32.265,25.586,30.462,4.26
2018-03-25 23:00,32.263,25.586,30.444,4.24
2018-03-26 00:00,,,,
2018-03-26 01:00,32.263,25.585,30.448,4.24
2018-03-26 02:00,32.265,25.589,30.428,4.22
2018-03-26 03:00,32.273,25.597,30.432,4.21
2018-03-26 04:00,32.276,25.599,30.429,4.21
2018-03-26 05:00,32.279,25.602,30.429,4.20
2018-03-26 06:00,32.280,25.603,30.424,4.20
2018-03-26 07:00,32.279,25.603,30.422,4.20
2018-03-26 08:00,32.277,25.601,30.428,4.20
2018-03-26 09:00,32.277,25.601,30.425,4.20
2018-03-26 10:00,32.269,25.596,30.405,4.18
2018-03-26 11:00,32.255,25.587,30.378,4.17
2018-03-26 12:00,32.252,25.585,30.370,4.16
2018-03-26 13:00,32.253,25.583,30.393,4.19
2018-03-26 14:00,32.254,25.584,30.392,4.18
2018-03-26 15:00,32.249,25.577,30.413,4.22
2018-03-26 16:00,32.255,25.579,30.444,4.25
2018-03-26 17:00,32.255,25.577,30.454,4.26
2018-03-26 18:00,32.255,25.572,30.503,4.32
2018-03-26 19:00,32.243,25.557,30.538,4.37
2018-03-26 20:00,32.250,25.563,30.537,4.36
2018-03-26 21:00,32.246,25.559,30.541,4.37
2018-03-26 22:00,32.261,25.570,30.559,4.38
2018-03-26 23:00,32.253,25.572,30.486,4.30
2018-03-27 00:00,32.244,25.575,30.390,4.19
2018-03-27 01:00,32.242,25.575,30.379,4.18
2018-03-27 03:00,32.250,25.570,30.482,4.30
2018-03-27 04:00,32.253,25.575,30.466,4.27
2018-03-27 05:00,32.253,25.580,30.416,4.22
2018-03-27 06:00,32.252,25.577,30.439,4.24
2018-03-27 07:00,32.257,25.579,30.455,4.26
2018-03-27 08:00,32.259,25.576,30.494,4.30
2018-03-27 09:00,32.264,25.587,30.440,4.23
2018-03-27 10:00,32.259,25.583,30.439,4.24
2018-03-27 11:00,32.326,25.621,30.621,4.39
2018-03-27 12:00,32.340,25.620,30.732,4.50
2018-03-27 13:00,32.334,25.618,30.710,4.48
2018-03-27 14:00,32.326,25.616,30.659,4.43
2018-03-27 15:00,32.332,25.620,30.673,4.44
2018-03-27 16:00,32.340,25.622,30.717,4.48
2018-03-27 17:00,32.348,25.620,30.796,4.57
2018-03-27 18:00,32.327,25.600,30.796,4.59
2018-03-27 19:00,32.344,25.608,30.860,4.65
2018-03-27 20:00,32.345,25.604,30.898,4.69
2018-03-27 23:00,32.297,25.572,30.806,4.63
2018-03-28 00:00,32.267,25.546,30.795,4.65
2018-03-28 01:00,32.272,25.557,30.742,4.58
2018-03-28 02:00,32.265,25.550,30.755,4.61
2018-03-28 03:00,32.269,25.555,30.744,4.59
2018-03-28 04:00,32.280,25.567,30.721,4.55
2018-03-28 05:00,32.277,25.565,30.725,4.56
2018-03-28 06:00,32.276,25.564,30.719,4.55
2018-03-28 07:00,32.275,25.565,30.706,4.54
2018-03-28 08:00,32.270,25.561,30.702,4.54
2018-03-28 09:00,32.271,25.564,30.679,4.51
2018-03-28 10:00,32.263,25.559,30.664,4.50
2018-03-28 11:00,32.262,25.561,30.641,4.47
2018-03-28 12:00,32.252,25.557,30.606,4.44
2018-03-28 13:00,32.210,25.533,30.484,4.34
2018-03-28 14:00,32.207,25.523,30.554,4.43
2018-03-28 15:00,32.203,25.511,30.614,4.50
2018-03-28 16:00,32.207,25.506,30.685,4.58
2018-03-28 17:00,32.221,25.516,30.711,4.60
2018-03-28 18:00,32.210,25.495,30.797,4.71
2018-03-28 19:00,32.211,25.500,30.769,4.68
2018-03-28 20:00,32.216,25.522,30.625,4.50
2018-03-28 21:00,32.217,25.510,30.727,4.62
2018-03-28 22:00,32.218,25.504,30.778,4.68
2018-03-28 23:00,32.213,25.498,30.801,4.71
2018-03-29 00:00,32.191,25.498,30.631,4.53
2018-03-29 01:00,32.185,25.499,30.586,4.49
2018-03-29 02:00,32.189,25.504,30.569,4.46
2018-03-29 03:00,32.202,25.511,30.616,4.51
2018-03-29 04:00,32.224,25.524,30.671,4.55
2018-03-29 05:00,32.229,25.526,30.687,4.56
2018-03-29 06:00,32.239,25.536,30.675,4.54
2018-03-29 07:00,32.235,25.536,30.643,4.50
2018-03-29 08:00,32.233,25.535,30.640,4.50
2018-03-29 09:00,32.183,25.511,30.467,4.35
2018-03-29 10:00,32.195,25.516,30.521,4.40
2018-03-29 11:00,32.141,25.489,30.342,4.24
2018-03-29 12:00,32.102,25.467,30.229,4.14
2018-03-29 13:00,32.073,25.449,30.168,4.10
2018-03-29 14:00,32.079,25.451,30.200,4.13
2018-03-29 15:00,32.058,25.423,30.268,4.24
2018-03-29 16:00,32.070,25.427,30.325,4.29
2018-03-29 17:00,32.067,25.417,30.387,4.37
2018-03-29 18:00,32.073,25.406,30.520,4.52
2018-03-29 19:00,32.064,25.383,30.642,4.68
2018-03-29 20:00,32.098,25.431,30.495,4.47
2018-03-29 21:00,32.083,25.424,30.448,4.43
2018-03-29 22:00,32.091,25.431,30.450,4.42
2018-03-29 23:00,32.075,25.424,30.386,4.36
2018-03-30 00:00,32.029,25.369,30.502,4.55
2018-03-30 01:00,32.036,25.371,30.539,4.58
2018-03-30 02:00,32.020,25.358,30.525,4.58
2018-03-30 03:00,32.064,25.396,30.532,4.55
2018-03-30 04:00,32.060,25.394,30.523,4.54
2018-03-30 05:00,32.061,25.398,30.497,4.51
2018-03-30 06:00,32.077,25.417,30.459,4.45
2018-03-30 07:00,32.054,25.401,30.427,4.43
2018-03-30 08:00,32.031,25.379,30.437,4.47
2018-03-30 10:00,32.044,25.390,30.439,4.46
2018-03-30 11:00,32.051,25.397,30.436,4.45
2018-03-30 12:00,32.070,25.415,30.428,4.42
2018-03-30 13:00,32.059,25.406,30.413,4.41
2018-03-30 14:00,32.059,25.406,30.416,4.41
2018-03-30 15:00,32.051,25.392,30.475,4.49
2018-03-30 16:00,32.054,25.385,30.549,4.58
2018-03-30 17:00,32.044,25.374,30.568,4.61
2018-03-30 18:00,32.053,25.382,30.574,4.61
2018-03-30 19:00,32.046,25.374,30.581,4.62
2018-03-30 20:00,32.030,25.355,30.626,4.69
2018-03-30 21:00,32.031,25.343,30.719,4.80
2018-03-30 22:00,32.051,25.368,30.666,4.72
2018-03-30 23:00,,,,
2018-03-31 00:00,32.064,25.390,30.583,4.61
2018-03-31 01:00,32.059,25.391,30.544,4.57
2018-03-31 02:00,32.061,25.395,30.520,4.54
2018-03-31 03:00,32.050,25.391,30.475,4.49
2018-03-31 04:00,32.051,25.393,30.463,4.48
2018-03-31 05:00,32.044,25.383,30.500,4.53
2018-03-31 06:00,32.058,25.399,30.473,4.48
2018-03-31 07:00,32.062,25.407,30.437,4.43
2018-03-31 08:00,32.069,25.416,30.406,4.39
2018-03-31 09:00,32.075,25.426,30.372,4.34
2018-03-31 10:00,32.075,25.427,30.361,4.33
2018-03-31 11:00,32.069,25.421,30.368,4.34
2018-03-31 12:00,32.065,25.420,30.351,4.33
2018-03-31 13:00,32.068,25.423,30.342,4.32
2018-03-31 14:00,32.075,25.426,30.365,4.34
2018-03-31 15:00,32.065,25.404,30.476,4.48
2018-03-31 16:00,32.071,25.360,30.867,4.94
2018-03-31 17:00,32.084,25.388,30.740,4.78
2018-03-31 18:00,32.088,25.402,30.658,4.67
2018-03-31 19:00,32.092,25.408,30.644,4.65
2018-03-31 20:00,32.082,25.400,30.631,4.65
2018-03-31 21:00,32.084,25.409,30.576,4.58
2018-03-31 22:00,32.077,25.412,30.500,4.49
2018-03-31 23:00,,,,
2018-04-01 00:00,32.087,25.425,30.463,4.44
2018-04-01 01:00,32.097,25.435,30.461,4.43
2018-04-01 02:00,32.104,25.442,30.455,4.41
2018-04-01 03:00,32.106,25.443,30.458,4.41
2018-04-01 04:00,32.111,25.447,30.461,4.41
2018-04-01 05:00,32.123,25.453,30.500,4.45
2018-04-01 06:00,32.143,25.466,30.542,4.48
2018-04-01 07:00,32.171,25.490,30.560,4.47
2018-04-01 08:00,32.173,25.488,30.586,4.50
2018-04-01 09:00,32.178,25.496,30.552,4.45
2018-04-01 10:00,32.172,25.499,30.493,4.39
2018-04-01 11:00,,,,
2018-04-01 12:00,31.910,25.281,30.345,4.48
2018-04-01 13:00,31.922,25.290,30.359,4.49
2018-04-01 14:00,,,,
2018-04-01 15:00,31.983,25.336,30.433,4.51
2018-04-01 16:00,31.991,25.340,30.456,4.53
2018-04-01 17:00,31.927,25.282,30.458,4.60
2018-04-01 18:00,31.914,25.270,30.461,4.62
2018-04-01 19:00,31.918,25.268,30.508,4.67
2018-04-01 20:00,31.897,25.250,30.503,4.68
2018-04-01 21:00,31.879,25.231,30.526,4.73
2018-04-01 22:00,31.817,25.180,30.481,4.74
2018-04-01 23:00,31.822,25.184,30.491,4.75
2018-04-02 00:00,31.844,25.201,30.510,4.75
2018-04-02 01:00,31.895,25.246,30.518,4.70
2018-04-02 02:00,31.915,25.265,30.508,4.67
2018-04-02 03:00,31.955,25.300,30.512,4.64
2018-04-02 04:00,31.989,25.332,30.508,4.60
2018-04-02 05:00,32.028,25.370,30.489,4.53
2018-04-02 06:00,32.032,25.373,30.494,4.53
2018-04-02 07:00,32.016,25.363,30.452,4.50
2018-04-02 08:00,32.021,25.369,30.446,4.49
2018-04-02 09:00,32.028,25.377,30.428,4.46
2018-04-02 10:00,32.034,25.381,30.442,4.47
2018-04-02 11:00,32.034,25.378,30.461,4.49
2018-04-02 12:00,32.054,25.394,30.474,4.49
2018-04-02 14:00,32.057,25.405,30.415,4.41
2018-04-02 15:00,32.053,25.446,30.035,3.96
2018-04-02 16:00,31.997,25.369,30.265,4.30
2018-04-02 17:00,31.999,25.356,30.387,4.44
2018-04-02 18:00,32.007,25.346,30.521,4.59
2018-04-02 19:00,31.987,25.322,30.574,4.68
2018-04-02 20:00,31.976,25.318,30.523,4.63
2018-04-02 21:00,31.975,25.310,30.582,4.70
2018-04-02 22:00,31.929,25.285,30.451,4.59
2018-04-02 23:00,31.923,25.288,30.384,4.51
2018-04-03 00:00,31.956,25.312,30.428,4.53
2018-04-03 01:00,31.997,25.347,30.448,4.51
2018-04-03 02:00,32.020,25.366,30.454,4.50
2018-04-03 03:00,32.032,25.376,30.466,4.50
2018-04-03 04:00,32.035,25.381,30.445,4.47
2018-04-03 05:00,32.048,25.390,30.462,4.48
2018-04-03 06:00,32.063,25.404,30.459,4.46
2018-04-03 07:00,32.072,25.412,30.467,4.46
2018-04-03 08:00,32.058,25.400,30.461,4.47
2018-04-03 09:00,32.020,25.367,30.449,4.49
2018-04-03 10:00,32.009,25.360,30.430,4.48
2018-04-03 11:00,31.944,25.307,30.385,4.49
2018-04-03 12:00,31.929,25.294,30.376,4.50
2018-04-03 13:00,31.931,25.294,30.391,4.51
2018-04-03 14:00,31.934,25.294,30.417,4.54
2018-04-03 15:00,31.947,25.300,30.463,4.59
2018-04-03 16:00,31.958,25.302,30.519,4.64
2018-04-03 17:00,31.993,25.329,30.554,4.65
2018-04-03 18:00,32.021,25.357,30.534,4.59
2018-04-03 19:00,,,,
2018-04-03 20:00,32.043,25.379,30.526,4.56
2018-04-03 21:00,32.048,25.385,30.509,4.54
2018-04-03 22:00,32.042,25.378,30.521,4.56
2018-04-03 23:00,,,,
2018-04-04 00:00,32.056,25.391,30.516,4.54
2018-04-04 01:00,32.072,25.403,30.532,4.54
2018-04-04 02:00,32.013,25.350,30.533,4.60
2018-04-04 03:00,32.008,25.346,30.533,4.61
2018-04-04 04:00,32.010,25.348,30.531,4.60
2018-04-04 05:00,32.015,25.353,30.530,4.59
2018-04-04 06:00,32.016,25.354,30.525,4.59
2018-04-04 07:00,32.031,25.368,30.522,4.57
2018-04-04 08:00,32.034,25.371,30.517,4.56
2018-04-04 09:00,31.981,25.330,30.469,4.56
2018-04-04 10:00,31.984,25.332,30.473,4.56
2018-04-04 11:00,31.968,25.319,30.462,4.56
2018-04-04 12:00,31.980,25.328,30.473,4.56
2018-04-04 13:00,32.002,25.346,30.489,4.56
2018-04-04 14:00,32.025,25.365,30.507,4.56
2018-04-04 15:00,32.046,25.382,30.514,4.54
2018-04-04 16:00,32.051,25.384,30.537,4.57
2018-04-04 17:00,32.068,25.395,30.576,4.59
2018-04-04 18:00,32.064,25.386,30.616,4.65
2018-04-04 19:00,32.062,25.383,30.630,4.67
2018-04-04 20:00,32.027,25.349,30.642,4.72
2018-04-04 21:00,31.967,25.299,30.611,4.74
2018-04-04 22:00,31.963,25.302,30.561,4.69
2018-04-04 23:00,31.979,25.317,30.561,4.67
2018-04-05 00:00,31.923,25.269,30.539,4.70
2018-04-05 01:00,31.925,25.274,30.514,4.67
2018-04-05 02:00,31.969,25.313,30.512,4.62
2018-04-05 03:00,31.991,25.334,30.503,4.59
2018-04-05 04:00,,,,
2018-04-05 05:00,32.021,25.365,30.475,4.52
2018-04-05 06:00,32.014,25.360,30.462,4.51
2018-04-05 07:00,32.010,25.357,30.460,4.52
2018-04-05 08:00,32.018,25.366,30.444,4.49
2018-04-05 09:00,32.020,25.370,30.424,4.46
2018-04-05 11:00,32.024,25.381,30.372,4.40
2018-04-05 12:00,,,,
2018-04-05 13:00,32.003,25.363,30.355,4.40
2018-04-05 14:00,32.011,25.369,30.368,4.41
2018-04-05 15:00,32.010,25.369,30.361,4.40
2018-04-05 17:00,32.028,25.382,30.392,4.42
2018-04-05 18:00,32.035,25.385,30.414,4.43
2018-04-05 19:00,32.043,25.389,30.437,4.45
2018-04-05 20:00,32.045,25.392,30.431,4.45
2018-04-05 21:00,32.045,25.392,30.431,4.45
2018-04-05 22:00,32.049,25.396,30.422,4.43
2018-04-05 23:00,32.049,25.398,30.411,4.42
2018-04-06 00:00,32.049,25.399,30.406,4.41
2018-04-06 01:00,32.050,25.401,30.392,4.39
2018-04-06 02:00,32.051,25.402,30.391,4.39
2018-04-06 03:00,32.053,25.407,30.370,4.36
2018-04-06 04:00,32.054,25.407,30.374,4.37
2018-04-06 05:00,32.052,25.408,30.356,4.35
2018-04-06 06:00,32.049,25.402,30.377,4.38
2018-04-06 07:00,32.042,25.396,30.373,4.38
2018-04-06 08:00,32.039,25.394,30.367,4.38
2018-04-06 09:00,32.045,25.400,30.369,4.37
2018-04-06 10:00,32.046,25.402,30.354,4.35
2018-04-06 11:00,32.041,25.397,30.359,4.36
2018-04-06 12:00,,,,
2018-04-06 13:00,32.045,25.400,30.368,4.37
2018-04-06 14:00,32.047,25.400,30.385,4.39
2018-04-06 15:00,32.049,25.399,30.399,4.40
2018-04-06 16:00,32.051,25.402,30.395,4.40
2018-04-06 17:00,32.050,25.401,30.393,4.39
2018-04-06 18:00,32.056,25.403,30.420,4.42
2018-04-06 19:00,32.054,25.405,30.397,4.39
2018-04-06 21:00,32.058,25.407,30.402,4.40
2018-04-06 22:00,32.060,25.409,30.399,4.39
2018-04-06 23:00,,,,
2018-04-07 00:00,32.062,25.412,30.398,4.39
2018-04-07 01:00,32.062,25.412,30.392,4.38
2018-04-07 02:00,,,,
2018-04-07 03:00,32.068,25.416,30.400,4.39
2018-04-07 04:00,32.067,25.415,30.399,4.39
2018-04-07 05:00,32.063,25.413,30.393,4.38
2018-04-07 06:00,32.069,25.418,30.398,4.38
2018-04-07 07:00,32.068,25.416,30.404,4.39
2018-04-07 08:00,32.069,25.417,30.404,4.39
2018-04-07 09:00,32.066,25.415,30.396,4.38
2018-04-07 10:00,32.065,25.415,30.392,4.38
2018-04-07 11:00,,,,
2018-04-07 12:00,,,,
2018-04-07 13:00,32.068,25.417,30.391,4.37
2018-04-07 14:00,32.073,25.420,30.406,4.39
2018-04-07 16:00,,,,
2018-04-07 17:00,32.075,25.412,30.485,4.48
2018-04-07 18:00,32.083,25.411,30.558,4.56
2018-04-07 19:00,32.076,25.406,30.540,4.54
2018-04-07 20:00,32.082,25.409,30.562,4.56
2018-04-07 21:00,32.072,25.396,30.596,4.61
2018-04-07 22:00,32.074,25.396,30.609,4.63
2018-04-07 23:00,32.073,25.402,30.554,4.56
2018-04-08 00:00,32.067,25.398,30.542,4.56
2018-04-08 01:00,32.066,25.400,30.518,4.53
2018-04-08 02:00,32.071,25.405,30.511,4.51
2018-04-08 03:00,32.069,25.405,30.503,4.51
2018-04-08 04:00,32.075,25.408,30.518,4.52
2018-04-08 05:00,32.076,25.408,30.531,4.53
2018-04-08 06:00,32.080,25.412,30.525,4.52
2018-04-08 07:00,32.088,25.417,30.542,4.53
2018-04-08 08:00,32.081,25.413,30.525,4.52
2018-04-08 09:00,32.085,25.417,30.519,4.51
2018-04-08 10:00,32.087,25.420,30.505,4.49
2018-04-08 11:00,32.077,25.416,30.469,4.46
2018-04-08 12:00,32.069,25.413,30.435,4.43
2018-04-08 13:00,32.061,25.403,30.458,4.46
2018-04-08 14:00,32.065,25.405,30.470,4.47
2018-04-08 15:00,32.059,25.400,30.468,4.47
2018-04-08 16:00,32.067,25.401,30.511,4.52
2018-04-08 17:00,32.072,25.404,30.536,4.54
2018-04-08 18:00,32.068,25.390,30.613,4.64
2018-04-08 19:00,32.066,25.376,30.707,4.75
2018-04-08 20:00,32.079,25.382,30.748,4.79
2018-04-08 21:00,32.091,25.393,30.753,4.78
2018-04-08 22:00,32.088,25.395,30.715,4.74
2018-04-08 23:00,32.086,25.398,30.681,4.70
2018-04-09 00:00,32.089,25.408,30.619,4.62
2018-04-09 01:00,32.089,25.415,30.562,4.56
2018-04-09 02:00,32.090,25.419,30.538,4.53
2018-04-09 03:00,32.096,25.428,30.511,4.49
2018-04-09 04:00,32.095,25.429,30.491,4.47
2018-04-09 05:00,32.095,25.429,30.489,4.46
2018-04-09 06:00,32.101,25.437,30.479,4.45
2018-04-09 07:00,32.103,25.440,30.460,4.42
2018-04-09 08:00,32.094,25.431,30.469,4.44
2018-04-09 09:00,32.089,25.429,30.450,4.42
2018-04-09 10:00,32.096,25.439,30.423,4.38
2018-04-09 11:00,32.087,25.431,30.418,4.39
2018-04-09 12:00,32.086,25.429,30.431,4.40
2018-04-09 13:00,32.087,25.429,30.433,4.41
2018-04-09 14:00,32.089,25.430,30.443,4.41
2018-04-09 15:00,32.087,25.424,30.476,4.46
2018-04-09 16:00,32.088,25.423,30.495,4.48
2018-04-09 17:00,32.086,25.418,30.517,4.51
2018-04-09 18:00,32.085,25.415,30.537,4.53
2018-04-09 19:00,32.087,25.415,30.545,4.54
2018-04-09 20:00,32.082,25.407,30.581,4.59
2018-04-09 21:00,32.086,25.409,30.586,4.59
2018-04-09 22:00,32.080,25.406,30.573,4.58
2018-04-09 23:00,32.078,25.408,30.547,4.55
2018-04-10 00:00,32.078,25.410,30.525,4.52
2018-04-10 01:00,32.076,25.409,30.521,4.52
2018-04-10 02:00,32.080,25.412,30.519,4.51
2018-04-10 03:00,32.079,25.413,30.508,4.50
2018-04-10 04:00,32.088,25.422,30.500,4.48
2018-04-10 05:00,32.085,25.421,30.487,4.47
2018-04-10 06:00,32.083,25.419,30.488,4.47
2018-04-10 07:00,32.078,25.417,30.471,4.46
2018-04-10 08:00,32.078,25.419,30.456,4.44
2018-04-10 09:00,32.062,25.406,30.434,4.43
2018-04-10 10:00,32.060,25.406,30.425,4.42
2018-04-10 11:00,32.054,25.403,30.407,4.41
2018-04-10 12:00,32.053,25.403,30.402,4.40
2018-04-10 13:00,32.053,25.400,30.418,4.42
2018-04-10 14:00,,,,
2018-04-10 15:00,,,,
2018-04-10 16:00,32.037,25.383,30.446,4.47
2018-04-10 17:00,32.038,25.379,30.484,4.52
2018-04-10 18:00,32.034,25.374,30.496,4.53
2018-04-10 19:00,32.039,25.376,30.516,4.55
2018-04-10 20:00,32.040,25.367,30.595,4.65
2018-04-10 21:00,32.023,25.337,30.708,4.80
2018-04-10 22:00,32.020,25.337,30.694,4.79
2018-04-10 23:00,32.024,25.359,30.549,4.61
2018-04-11 00:00,32.023,25.358,30.546,4.61
2018-04-11 01:00,32.015,25.355,30.508,4.57
2018-04-11 02:00,32.017,25.362,30.468,4.52
2018-04-11 03:00,32.021,25.370,30.435,4.47
2018-04-11 04:00,32.021,25.369,30.442,4.48
2018-04-11 05:00,32.020,25.365,30.470,4.52
2018-04-11 06:00,32.034,25.377,30.473,4.51
2018-04-11 07:00,32.038,25.380,30.472,4.50
2018-04-11 08:00,32.036,25.381,30.460,4.49
2018-04-11 09:00,32.033,25.377,30.466,4.50
2018-04-11 10:00,32.025,25.371,30.450,4.49
2018-04-11 11:00,32.028,25.376,30.437,4.47
2018-04-11 12:00,32.020,25.369,30.433,4.47
2018-04-11 13:00,32.021,25.366,30.465,4.51
2018-04-11 14:00,32.011,25.340,30.607,4.69
2018-04-11 15:00,32.032,25.329,30.839,4.95
2018-04-11 16:00,32.002,25.264,31.126,5.32
2018-04-11 17:00,31.963,25.203,31.311,5.58
2018-04-11 18:00,31.930,25.155,31.440,5.77
2018-04-11 19:00,31.991,25.295,30.818,4.96
2018-04-11 20:00,31.978,25.311,30.593,4.71
2018-04-11 21:00,32.001,25.335,30.572,4.66
2018-04-11 22:00,32.011,25.353,30.492,4.55
2018-04-11 23:00,,,,
2018-04-12 00:00,32.022,25.366,30.478,4.53
2018-04-12 01:00,32.024,25.367,30.480,4.53
2018-04-12 02:00,32.027,25.368,30.493,4.54
2018-04-12 03:00,32.036,25.374,30.514,4.55
2018-04-12 04:00,32.053,25.386,30.537,4.56
2018-04-12 05:00,,,,
2018-04-12 06:00,32.070,25.388,30.639,4.67
2018-04-12 07:00,32.072,25.396,30.593,4.61
2018-04-12 08:00,32.076,25.403,30.572,4.58
2018-04-12 09:00,32.077,25.405,30.559,4.57
2018-04-12 10:00,32.077,25.407,30.545,4.55
2018-04-12 11:00,32.064,25.395,30.541,4.56
2018-04-12 12:00,32.062,25.390,30.569,4.59
2018-04-12 13:00,32.065,25.388,30.611,4.64
2018-04-12 14:00,32.028,25.355,30.608,4.68
2018-04-12 15:00,32.007,25.320,30.731,4.84
2018-04-12 16:00,32.002,25.306,30.804,4.94
2018-04-12 17:00,31.998,25.283,30.959,5.12
2018-04-12 18:00,31.996,25.271,31.030,5.21
2018-04-12 19:00,31.994,25.281,30.940,5.11
2018-04-12 20:00,31.994,25.295,30.833,4.98
2018-04-12 21:00,32.015,25.325,30.747,4.86
2018-04-12 22:00,32.019,25.347,30.601,4.68
2018-04-12 23:00,32.029,25.358,30.587,4.65
2018-04-13 00:00,,,,
2018-04-13 01:00,32.031,25.356,30.618,4.68
2018-04-13 02:00,32.039,25.362,30.632,4.69
2018-04-13 03:00,32.036,25.365,30.586,4.64
2018-04-13 04:00,32.045,25.370,30.606,4.66
2018-04-13 05:00,32.053,25.375,30.623,4.67
2018-04-13 06:00,32.060,25.379,30.646,4.69
2018-04-13 07:00,32.076,25.387,30.694,4.73
2018-04-13 08:00,32.078,25.387,30.710,4.74
2018-04-13 09:00,32.078,25.388,30.706,4.74
2018-04-13 10:00,32.078,25.388,30.704,4.74
2018-04-13 11:00,32.065,25.381,30.663,4.70
2018-04-13 12:00,,,,
2018-04-13 13:00,32.028,25.360,30.566,4.62
2018-04-13 14:00,32.021,25.347,30.618,4.69
2018-04-13 15:00,32.016,25.331,30.710,4.81
2018-04-13 16:00,32.007,25.326,30.679,4.78
2018-04-13 17:00,32.005,25.321,30.711,4.82
2018-04-13 18:00,32.009,25.320,30.741,4.85
2018-04-13 19:00,32.018,25.315,30.847,4.97
2018-04-13 20:00,32.020,25.301,30.975,5.12
2018-04-13 22:00,31.995,25.281,30.946,5.11
2018-04-13 23:00,31.985,25.270,30.960,5.14
2018-04-14 00:00,31.974,25.271,30.880,5.06
2018-04-14 01:00,31.959,25.265,30.824,5.01
2018-04-14 02:00,31.962,25.262,30.866,5.05
2018-04-14 03:00,31.961,25.275,30.758,4.92
2018-04-14 04:00,31.982,25.309,30.638,4.76
2018-04-14 05:00,32.004,25.339,30.557,4.64
2018-04-14 06:00,31.960,25.282,30.699,4.85
2018-04-14 07:00,31.956,25.277,30.704,4.86
2018-04-14 08:00,31.981,25.312,30.608,4.72
2018-04-14 09:00,31.984,25.315,30.607,4.72
2018-04-14 10:00,31.988,25.319,30.601,4.71
2018-04-14 11:00,31.991,25.320,30.623,4.73
2018-04-14 12:00,31.997,25.322,30.649,4.76
2018-04-14 13:00,32.008,25.324,30.709,4.82
2018-04-14 14:00,32.006,25.296,30.914,5.06
2018-04-14 15:00,31.964,25.253,30.944,5.14
2018-04-14 16:00,31.981,25.270,30.931,5.11
2018-04-14 17:00,31.999,25.300,30.830,4.97
2018-04-14 18:00,32.005,25.310,30.793,4.92
2018-04-14 19:00,32.017,25.321,30.791,4.91
2018-04-14 20:00,31.999,25.299,30.837,4.98
2018-04-14 21:00,31.999,25.302,30.811,4.95
2018-04-14 22:00,32.006,25.312,30.790,4.91
2018-04-14 23:00,32.004,25.314,30.755,4.88
2018-04-15 00:00,,,,
2018-04-15 01:00,31.971,25.297,30.651,4.79
2018-04-15 02:00,31.961,25.292,30.622,4.76
2018-04-15 03:00,31.950,25.288,30.580,4.72
2018-04-15 04:00,31.954,25.293,30.567,4.70
2018-04-15 05:00,31.953,25.292,30.565,4.70
2018-04-15 06:00,31.956,25.294,30.569,4.70
2018-04-15 07:00,31.963,25.301,30.565,4.69
2018-04-15 08:00,31.963,25.303,30.556,4.68
2018-04-15 09:00,31.970,25.307,30.572,4.69
2018-04-15 10:00,31.975,25.310,30.578,4.69
2018-04-15 11:00,31.978,25.314,30.568,4.68
2018-04-15 12:00,31.980,25.315,30.572,4.68
2018-04-15 13:00,,,,
2018-04-15 14:00,31.924,25.273,30.512,4.67
2018-04-15 15:00,31.922,25.268,30.532,4.69
2018-04-15 16:00,31.897,25.251,30.494,4.67
2018-04-15 17:00,31.908,25.259,30.507,4.68
2018-04-15 18:00,31.904,25.258,30.492,4.66
2018-04-15 19:00,31.900,25.255,30.486,4.66
2018-04-15 20:00,31.911,25.262,30.500,4.67
2018-04-15 21:00,31.906,25.261,30.482,4.65
2018-04-15 22:00,31.900,25.256,30.474,4.65
2018-04-15 23:00,31.895,25.253,30.459,4.63
2018-04-16 00:00,31.888,25.248,30.452,4.63
2018-04-16 01:00,31.891,25.251,30.453,4.63
2018-04-16 02:00,31.878,25.239,30.451,4.64
2018-04-16 03:00,31.878,25.240,30.443,4.63
2018-04-16 05:00,31.871,25.234,30.439,4.64
2018-04-16 06:00,31.860,25.226,30.427,4.63
2018-04-16 07:00,31.867,25.231,30.433,4.63
2018-04-16 08:00,,,,
2018-04-16 09:00,31.881,25.244,30.438,4.62
2018-04-16 10:00,31.898,25.257,30.451,4.62
2018-04-16 11:00,31.903,25.262,30.452,4.62
2018-04-16 12:00,31.910,25.267,30.455,4.61
2018-04-16 13:00,31.911,25.267,30.461,4.62
2018-04-16 14:00,31.890,25.251,30.444,4.62
2018-04-16 15:00,31.900,25.258,30.458,4.63